Regional Weather Roundup
Issued by NWS

Home | Current Version | Previous Version | Graphics & Text | Print | Product List | Glossary On
Versions: 1 2 3 4 5 6 7 8 9 10 11 12 13 14 15 16 17 18 19 20 21 22 23 24 25 26 27 28 29 30 31 32 33 34 35 36 37 38 39 40 41 42 43 44 45 46 47 48 49 50
000
ASUS43 KLMK 231910
RWRKY
KENTUCKY REGIONAL WEATHER ROUNDUP
NATIONAL WEATHER SERVICE LOUISVILLE KY
300 PM EDT WED JUL 23 2014

NOTE "FAIR" INDICATES FEW OR NO CLOUDS BELOW 12,000 FEET
WITH NO SIGNIFICANT WEATHER AND/OR OBSTRUCTIONS TO VISIBILITY.

KYZ001>023-026-027-061>063-070>075-232000-
WESTERN AND SOUTH CENTRAL KENTUCKY

CITY           SKY/WX    TMP DP  RH WIND       PRES   REMARKS
PADUCAH        CLOUDY    75  69  81 NW3       29.97R
HENDERSON      PTSUNNY   81  70  69 N6        30.00F
OWENSBORO      CLOUDY    82  70  67 CALM      30.01F
HOPKINSVILLE   PTSUNNY   89  69  52 SW13G18   29.96F HX  93
BOWLING GREEN  CLOUDY    92  69  47 S12G20    29.96F HX  97
GLASGOW        MOSUNNY   91  67  45 S7        29.98F HX  94
$$

KYZ024-025-028>034-038-045-046-053-232000-
NORTH CENTRAL KENTUCKY

CITY           SKY/WX    TMP DP  RH WIND       PRES   REMARKS
LOUISVILLE/SDF CLOUDY    85  69  58 VRB5      30.00F
LOUISVILLE/LOU CLOUDY    85  69  58 NW7       30.00F
FORT KNOX      CLOUDY    82  71  71 N8        30.00F
$$

KYZ035>037-039>044-047>052-055>060-089>105-232000-
NORTHEAST KENTUCKY

CITY           SKY/WX    TMP DP  RH WIND       PRES   REMARKS
LEXINGTON      PTSUNNY   85  70  60 SE8       29.99F
COVINGTON      CLOUDY    78  69  73 SW10      30.00R
FRANKFORT      CLOUDY    83  72  69 CALM      29.99F
$$

KYZ054-064>069-076>088-106>120-232000-
SOUTHEAST KENTUCKY

CITY           SKY/WX    TMP DP  RH WIND       PRES   REMARKS
JACKSON        PTSUNNY   84  71  65 CALM      30.04F
LONDON         TSTM      76  69  79 E9        30.05F
SOMERSET       PTSUNNY   84  70  61 NW10      30.03F
MIDDLESBORO    PTSUNNY   77  73  87 SE5       30.07S
MONTICELLO     PTCLDY    90  72  55 W6        30.03F HX  97
$$



USA.gov is the U.S. government's official web portal to all federal, state and local government web resources and services.